[[{"header":{"parameterUnit":"m.s-1","parameterCategory":1,"la1":30.2991,"la2":30.254,"lo1":-89.0895,"lo2":-89.0444,"dy":0.0017,"dx":0.0017,"nx":28,"ny":28,"refTime":"2024-06-02T09:00:00:Z","depth":0,"parameterNumber":2,"parameterNumberName":"U-component_of_WINDS"},"data":[0,0,0,0,0,0,0,0,0,0,0,0,0,0,0,0,0,0,0,0,0,0,0,0,0,0,0,0,0,0,0,0,0,0,0,0,0,0,0,0,0,0,0,0,0,0,0,0,0,0,0,0,0,0,0,0,0,0,-2.1272,-2.1272,0,-2.1187,-2.1186,-2.1185,-2.1102,-2.1101,-2.11,-2.1099,-2.1008,-2.1007,-2.1005,0,0,0,0,0,0,0,0,0,0,0,0,0,-2.1362,-2.1361,-2.1273,-2.1271,-2.127,-2.1187,-2.1186,-2.1185,-2.1102,-2.1101,-2.11,-2.1099,-2.1009,-2.1007,-2.1005,0,0,0,0,0,0,0,0,0,0,0,0,0,-2.1305,-2.1361,-2.1273,-2.1219,-2.1214,-2.1187,-2.1186,-2.1184,-2.1103,-2.1101,-2.11,-2.1098,-2.1009,-2.1007,-2.1005,-2.1023,0,0,-2.0998,-2.0997,0,0,0,0,0,0,0,0,-2.1308,-2.1301,-2.1228,-2.1223,-2.1217,-2.1154,-2.1184,-2.113,-2.1103,-2.1145,-2.1099,-2.1097,-2.1058,-2.1051,-2.1039,-2.1019,-2.1015,-2.0998,-2.0997,-2.0996,-2.0995,0,0,0,0,0,0,0,-2.1312,-2.1305,-2.1238,-2.1227,-2.122,-2.1199,-2.1189,-2.1173,-2.1111,-2.1141,-2.1135,-2.1126,-2.1054,-2.1041,-2.1036,-2.1014,-2.0998,-2.0996,-2.0995,-2.0994,-2.1005,-2.1007,0,0,0,0,0,0,-2.1325,-2.1308,-2.1241,-2.1236,-2.1259,-2.1199,-2.1187,-2.1175,-2.1111,-2.11,-2.1127,-2.1122,-2.1045,-2.1038,-2.1032,-2.1049,-2.0996,-2.0994,-2.0993,-2.1003,-2.1005,-2.1007,0,0,0,0,0,0,-2.1327,-2.1319,-2.1245,-2.1271,-2.1259,-2.1199,-2.1186,-2.1175,-2.1161,-2.1101,-2.1089,-2.1126,-2.1044,-2.1035,-2.1026,-2.1045,-2.0993,-2.0991,-2.1002,-2.1004,-2.1006,-2.1084,0,0,0,0,0,0,-2.133,-2.1321,-2.1327,-2.1271,-2.1258,-2.1241,-2.1187,-2.1174,-2.1158,-2.1151,-2.1096,-2.1085,-2.1042,-2.103,-2.1024,-2.1041,-2.0989,-2.1,-2.1003,-2.1005,-2.108,-2.1089,-2.1097,0,0,0,0,0,-2.1333,-2.1352,-2.1328,-2.1321,-2.1266,-2.1242,-2.1235,-2.1186,-2.116,-2.1166,-2.1127,-2.1087,-2.1045,-2.103,-2.1023,-2.1039,-2.0998,-2.1002,-2.1005,-2.1076,-2.1087,-2.1097,0,0,0,0,0,0,-2.141,-2.1343,-2.1316,-2.1318,-2.1287,-2.1228,-2.1234,-2.1199,-2.1173,-2.1168,-2.1107,-2.1095,-2.1093,-2.1065,-2.105,-2.1054,-2.1016,-2.1018,-2.1072,-2.1082,-2.1091,-2.1097,-2.0987,0,0,0,0,0,-2.1428,-2.1415,-2.1357,-2.1364,-2.135,-2.1295,-2.1283,-2.1248,-2.1213,-2.1199,-2.1159,-2.1126,-2.1105,-2.1092,-2.1069,-2.1076,-2.1062,-2.1084,-2.1092,-2.11,-2.1102,-2.1104,-2.1112,-2.1019,-2.1019,-2.1019,0,0,-2.1463,-2.1425,-2.142,-2.1378,-2.135,-2.1338,-2.1284,-2.1273,-2.1263,-2.1197,-2.1186,-2.1156,-2.1115,-2.1114,-2.1111,-2.109,-2.1125,-2.1104,-2.1111,-2.1109,-2.1108,-2.1117,-2.1125,-2.1021,-2.1021,-2.102,0,0,-2.152,-2.1491,-2.1493,-2.1467,-2.1425,-2.1389,-2.139,-2.1338,-2.1316,-2.1304,-2.1254,-2.1241,-2.1207,-2.1179,-2.1161,-2.1211,-2.1172,-2.1205,-2.1249,-2.1252,-2.1259,-2.1265,-2.1282,-2.1289,-2.1208,-2.1208,-2.1208,0,-2.1569,-2.1549,-2.1499,-2.1491,-2.1474,-2.1415,-2.1417,-2.1393,-2.1346,-2.1335,-2.1313,-2.1269,-2.1237,-2.1229,-2.1242,-2.1229,-2.1227,-2.121,-2.1262,-2.1268,-2.1273,-2.1289,-2.1296,-2.1212,-2.1211,-2.1211,-2.1211,0,-2.1611,-2.1598,-2.1605,-2.1563,-2.1547,-2.1544,-2.1493,-2.1482,-2.1449,-2.1416,-2.1405,-2.1365,-2.1333,-2.1329,-2.1296,-2.1317,-2.1305,-2.1274,-2.1234,-2.1287,-2.1301,-2.1306,-2.1218,-2.1216,-2.1215,-2.1214,0,0,-2.1712,-2.1644,-2.1647,-2.1628,-2.1579,-2.1567,-2.1562,-2.1533,-2.1525,-2.1495,-2.1489,-2.1462,-2.1433,-2.1412,-2.1376,-2.1378,-2.142,-2.1346,-2.1344,-2.136,-2.1439,-2.1463,-2.1471,-2.1395,-2.1396,-2.1397,-2.1443,0,-2.1761,-2.1749,-2.1705,-2.1706,-2.1693,-2.1638,-2.1633,-2.1603,-2.1571,-2.1556,-2.152,-2.1502,-2.1466,-2.1453,-2.1453,-2.1415,-2.1435,-2.1411,-2.1387,-2.1387,-2.1398,-2.1478,-2.1502,-2.1548,-2.1448,-2.1449,-2.1449,0,-2.1816,-2.1791,-2.1792,-2.1744,-2.1737,-2.1734,-2.1704,-2.169,-2.1654,-2.1631,-2.1609,-2.1569,-2.156,-2.1525,-2.1511,-2.1496,-2.1484,-2.1464,-2.1465,-2.146,-2.1421,-2.1474,-2.1561,-2.1568,-2.1458,-2.1457,-2.1456,0,-2.1889,-2.1856,-2.1852,-2.1837,-2.1782,-2.1781,-2.1758,-2.172,-2.1706,-2.1679,-2.1669,-2.1642,-2.1627,-2.1606,-2.156,-2.1539,-2.1552,-2.1512,-2.1532,-2.1533,-2.1535,-2.1536,-2.1621,-2.153,-2.153,-2.153,-2.1529,0,-2.1948,-2.195,-2.1885,-2.1882,-2.1883,-2.1832,-2.1834,-2.1805,-2.1773,-2.1763,-2.1714,-2.1706,-2.1646,-2.1631,-2.1595,-2.1589,-2.1582,-2.1563,-2.1553,-2.1567,-2.1569,-2.1557,-2.1552,-2.1531,-2.1531,-2.1531,-2.153,0,-2.2029,-2.1986,-2.1978,-2.1927,-2.1914,-2.1917,-2.1873,-2.1868,-2.1835,-2.1823,-2.1818,-2.1765,-2.1745,-2.1697,-2.1664,-2.164,-2.1643,-2.1626,-2.1656,-2.1649,-2.1671,-2.167,-2.175,-2.1758,-2.1664,-2.1665,-2.1666,0,-2.2069,-2.2069,-2.2019,-2.201,-2.1989,-2.1975,-2.196,-2.191,-2.1897,-2.1857,-2.1857,-2.1834,-2.1812,-2.1782,-2.174,-2.1715,-2.1696,-2.1726,-2.1692,-2.1706,-2.1696,-2.1696,-2.1695,-2.1733,-2.1735,-2.1736,-2.1737,0,-2.2143,-2.2122,-2.2104,-2.2079,-2.2064,-2.2041,-2.2015,-2.2011,-2.1954,-2.1942,-2.1922,-2.1905,-2.1872,-2.1849,-2.1818,-2.1793,-2.1755,-2.1748,-2.1751,-2.1765,-2.1782,-2.1772,-2.1675,-2.1746,-2.1745,-2.1745,-2.1744,-2.1744,-2.2204,-2.2202,-2.2167,-2.2149,-2.2125,-2.2103,-2.2096,-2.2063,-2.2046,-2.2016,-2.1987,-2.197,-2.1935,-2.1889,-2.1867,-2.1852,-2.1832,-2.1837,-2.1838,-2.1839,-2.1845,-2.1786,-2.1846,-2.1845,-2.1845,-2.1845,-2.1845,0,-2.2275,-2.2251,-2.2234,-2.2201,-2.2187,-2.2155,-2.2126,-2.2116,-2.2101,-2.2072,-2.2053,-2.203,-2.2008,-2.1965,-2.1939,-2.1936,-2.1918,-2.193,-2.1929,-2.1924,-2.1864,-2.1864,-2.1945,-2.1945,-2.1945,-2.1945,-2.1945,-2.1945,-2.2311,-2.2306,-2.2282,-2.2265,-2.224,-2.2224,-2.2209,-2.2189,-2.2165,-2.2142,-2.2124,-2.2098,-2.2063,-2.2034,-2.2013,-2.2,-2.1993,-2.2011,-2.1993,-2.1938,-2.1928,-2.1919,-2.1919,-2.201,-2.201,-2.2054,-2.2055,-2.2055]},{"header":{"parameterUnit":"m.s-1","parameterCategory":1,"la1":30.2991,"la2":30.254,"lo1":-89.0895,"lo2":-89.0444,"dy":0.0017,"dx":0.0017,"nx":28,"ny":28,"refTime":"2024-06-02T09:00:00:Z","depth":0,"parameterNumber":3,"parameterNumberName":"V-component_of_WINDS"},"data":[0,0,0,0,0,0,0,0,0,0,0,0,0,0,0,0,0,0,0,0,0,0,0,0,0,0,0,0,0,0,0,0,0,0,0,0,0,0,0,0,0,0,0,0,0,0,0,0,0,0,0,0,0,0,0,0,0,0,1.0538,1.0537,0,1.0488,1.0488,1.0487,1.0458,1.0458,1.0458,1.0458,1.0406,1.0405,1.0404,0,0,0,0,0,0,0,0,0,0,0,0,0,1.0607,1.0606,1.0538,1.0537,1.0536,1.0489,1.0488,1.0487,1.0458,1.0458,1.0458,1.0458,1.0407,1.0405,1.0404,0,0,0,0,0,0,0,0,0,0,0,0,0,1.0569,1.0605,1.0538,1.0516,1.0514,1.0489,1.0488,1.0487,1.0458,1.0458,1.0458,1.0458,1.0407,1.0405,1.0404,1.0396,0,0,1.0398,1.0397,0,0,0,0,0,0,0,0,1.0571,1.0567,1.052,1.0518,1.0515,1.0479,1.0493,1.0456,1.0458,1.0479,1.0458,1.0457,1.0431,1.0427,1.0418,1.0393,1.0391,1.0398,1.0397,1.0396,1.0395,0,0,0,0,0,0,0,1.0574,1.0569,1.0518,1.0519,1.0516,1.0509,1.0504,1.0486,1.0457,1.0477,1.0475,1.047,1.0429,1.042,1.0417,1.039,1.0398,1.0396,1.0395,1.0394,1.0359,1.0359,0,0,0,0,0,0,1.058,1.0571,1.052,1.0517,1.0543,1.0508,1.0502,1.0491,1.0457,1.0451,1.047,1.0469,1.0423,1.0419,1.0415,1.0404,1.0396,1.0394,1.0393,1.0359,1.0359,1.0359,0,0,0,0,0,0,1.0582,1.0576,1.0522,1.0543,1.0536,1.0507,1.0495,1.049,1.0481,1.0451,1.0446,1.0466,1.0423,1.0417,1.0401,1.0402,1.0393,1.0391,1.0359,1.0359,1.0359,1.0383,0,0,0,0,0,0,1.0584,1.0577,1.0573,1.0543,1.0535,1.0509,1.0495,1.0489,1.0478,1.0475,1.0446,1.0441,1.0422,1.0404,1.0399,1.0399,1.039,1.0358,1.0359,1.0359,1.0382,1.0384,1.0386,0,0,0,0,0,1.0586,1.0581,1.0573,1.0567,1.053,1.0509,1.0504,1.0483,1.0478,1.0474,1.0456,1.0442,1.0403,1.0403,1.0397,1.0397,1.0358,1.0359,1.0359,1.0381,1.0384,1.0386,0,0,0,0,0,0,1.0611,1.0577,1.0567,1.0552,1.0534,1.0504,1.0499,1.0486,1.0469,1.0467,1.0442,1.0436,1.0422,1.0408,1.0408,1.0388,1.0379,1.0378,1.0398,1.04,1.0402,1.0405,1.0388,0,0,0,0,0,1.0614,1.06,1.0571,1.0561,1.0552,1.0527,1.0517,1.0503,1.0483,1.0475,1.0455,1.0436,1.0419,1.0409,1.0392,1.038,1.0374,1.0377,1.0379,1.0381,1.038,1.0374,1.0376,1.0361,1.0361,1.0361,0,0,1.0621,1.0601,1.0594,1.0565,1.0549,1.0536,1.0521,1.0506,1.0496,1.0472,1.0456,1.0441,1.0418,1.0405,1.0398,1.0392,1.0383,1.0381,1.0383,1.0381,1.0375,1.0376,1.0378,1.0361,1.0361,1.0361,0,0,1.0628,1.0611,1.0601,1.0586,1.0562,1.0546,1.0544,1.0516,1.0506,1.0489,1.0472,1.0459,1.0431,1.0416,1.0405,1.0408,1.0395,1.0403,1.0413,1.0407,1.0409,1.041,1.0411,1.0412,1.0403,1.0403,1.0403,0,1.0639,1.0618,1.0597,1.0584,1.0573,1.0552,1.0542,1.0528,1.05,1.0493,1.0488,1.0454,1.0437,1.042,1.0421,1.0412,1.0409,1.0406,1.041,1.0411,1.0411,1.0413,1.0414,1.0404,1.0404,1.0404,1.0404,0,1.0634,1.062,1.0615,1.0589,1.0577,1.0566,1.0544,1.0534,1.0522,1.0507,1.0491,1.047,1.045,1.0445,1.0432,1.0427,1.0424,1.0415,1.0405,1.0415,1.0415,1.0416,1.0406,1.0406,1.0405,1.0405,0,0,1.0652,1.0617,1.0616,1.0604,1.0578,1.0567,1.0555,1.0536,1.0529,1.0511,1.0501,1.0479,1.0471,1.0458,1.0444,1.0439,1.0444,1.043,1.0429,1.0434,1.0438,1.0445,1.0446,1.0436,1.0436,1.0436,1.044,0,1.0654,1.0633,1.0615,1.06,1.0587,1.0568,1.0559,1.0542,1.0528,1.0515,1.0499,1.0485,1.0475,1.0467,1.0461,1.0444,1.0444,1.0444,1.0426,1.0426,1.0432,1.0446,1.0453,1.0458,1.044,1.044,1.044,0,1.0654,1.0638,1.0622,1.0599,1.0593,1.0584,1.0566,1.0554,1.0535,1.0525,1.0512,1.0498,1.0486,1.0478,1.0461,1.0462,1.0454,1.0445,1.0444,1.0441,1.0433,1.0444,1.0459,1.046,1.0441,1.0441,1.044,0,1.0669,1.0644,1.0631,1.0622,1.0595,1.0589,1.0578,1.0559,1.0549,1.0533,1.0526,1.0509,1.05,1.0487,1.0469,1.0465,1.0455,1.0445,1.0447,1.0447,1.0444,1.0445,1.0459,1.044,1.044,1.044,1.044,0,1.0673,1.0664,1.0638,1.063,1.062,1.06,1.0591,1.0578,1.0562,1.0551,1.0534,1.0525,1.0502,1.049,1.0476,1.0465,1.0461,1.0453,1.0449,1.0454,1.0455,1.0448,1.0447,1.044,1.044,1.044,1.044,0,1.0688,1.067,1.0656,1.0631,1.0625,1.0619,1.0598,1.0591,1.0577,1.0564,1.056,1.0538,1.0524,1.0504,1.0484,1.0474,1.0465,1.0459,1.0472,1.047,1.0472,1.0472,1.0482,1.0482,1.0463,1.0463,1.0464,0,1.0692,1.0685,1.0661,1.0653,1.0642,1.063,1.062,1.0601,1.0591,1.0571,1.0566,1.055,1.0537,1.0515,1.0497,1.0482,1.0475,1.048,1.0473,1.0479,1.0476,1.0477,1.0476,1.0481,1.0482,1.0482,1.0482,0,1.0701,1.0693,1.0679,1.0664,1.0653,1.0639,1.0625,1.062,1.0598,1.0588,1.0574,1.0564,1.0544,1.0529,1.0512,1.05,1.0488,1.0485,1.0484,1.0489,1.0497,1.0493,1.0476,1.0484,1.0484,1.0484,1.0484,1.0484,1.071,1.0704,1.0686,1.0672,1.066,1.0648,1.064,1.0626,1.0613,1.0596,1.0585,1.0572,1.0555,1.053,1.052,1.0509,1.0504,1.0503,1.0503,1.0503,1.0505,1.0499,1.0506,1.0506,1.0506,1.0505,1.0505,0,1.0718,1.0707,1.0694,1.0676,1.0666,1.0656,1.064,1.0632,1.0621,1.0606,1.0594,1.0578,1.0564,1.0546,1.0531,1.0527,1.0521,1.0523,1.0523,1.0521,1.051,1.0512,1.0528,1.0528,1.0528,1.0528,1.0528,1.0528,1.0721,1.071,1.0701,1.0684,1.0672,1.0659,1.0651,1.064,1.0628,1.0612,1.0601,1.0589,1.0574,1.0558,1.0545,1.054,1.0536,1.054,1.0534,1.0524,1.0522,1.052,1.0521,1.0539,1.0539,1.0546,1.0546,1.0546]}]]